Location: Croisilles
(50.1998°N, 2.8793°E)
Time: 20:36:06
(UTC+00:00)

Cosmos 1606 Rocket - Pass Details

Date: 21 January 2021
Orbit: 604 x 631 km, 82.5° (Epoch: 01 March)

Event Time Altitude Azimuth Distance (km) Brightness Sun altitude
Rises 17:05:57 0° 352° (N) 2,892 6.8 -6.8°
Reaches altitude 10° 17:08:11 10° 355° (N) 1,986 6.0 -7.2°
Maximum altitude 17:12:34 65° 78° (ENE) 682 3.5 -7.8°
Drops below altitude 10° 17:16:56 10° 161° (SSE) 1,987 6.2 -8.5°
Sets 17:19:11 0° 164° (SSE) 2,893 7.1 -8.8°
